• In Schweiz
  • Länderverzeichnis
  • Für 7 Tage
  • Wassertemperatur
  • Satellitenkarten
  • Wetterkarte
  • Widgets
  • user-avatar
    Anmelden

    Stündliche Wetter Rodnichnyy Dol

    Heute, 21 Oktober, Sonntag

    Zeit Temperatur Niederschläge Wind Luftdruck Luftfeuchtigkeit
    00:00 +10°C° 0 mm 3 m/S 751 mmHg 62%
    01:00 +10°C° 0 mm 3 m/S 751 mmHg 68%
    02:00 +9°C° 0 mm 3 m/S 751 mmHg 74%
    03:00 +8°C° 0 mm 3 m/S 752 mmHg 80%
    04:00 +7°C° 0 mm 2 m/S 752 mmHg 87%
    05:00 +7°C° 0 mm 2 m/S 752 mmHg 89%
    06:00 +6°C° 0 mm 2 m/S 752 mmHg 90%
    07:00 +6°C° 0 mm 2 m/S 753 mmHg 92%
    08:00 +7°C° 0 mm 3 m/S 753 mmHg 84%
    09:00 +8°C° 0 mm 3 m/S 754 mmHg 76%
    10:00 +9°C° 0 mm 3 m/S 754 mmHg 68%
    11:00 +10°C° 0 mm 3 m/S 754 mmHg 62%
    12:00 +10°C° 0 mm 3 m/S 755 mmHg 56%
    13:00 +11°C° 0 mm 3 m/S 755 mmHg 50%
    14:00 +11°C° 0 mm 3 m/S 755 mmHg 50%
    15:00 +11°C° 0 mm 3 m/S 756 mmHg 50%
    16:00 +11°C° 0 mm 3 m/S 756 mmHg 50%
    17:00 +9°C° 0 mm 3 m/S 756 mmHg 55%
    18:00 +8°C° 0 mm 3 m/S 756 mmHg 60%
    19:00 +7°C° 0 mm 2 m/S 757 mmHg 65%
    20:00 +6°C° 0 mm 2 m/S 757 mmHg 68%
    21:00 +6°C° 0 mm 2 m/S 757 mmHg 71%
    22:00 +5°C° 0 mm 2 m/S 758 mmHg 74%
    23:00 +5°C° 0 mm 2 m/S 758 mmHg 76%

    Morgen, 22 Oktober, Montag

    Zeit Temperatur Niederschläge Wind Luftdruck Luftfeuchtigkeit
    00:00 +4°C° 0 mm 2 m/S 758 mmHg 78%
    01:00 +4°C° 0 mm 2 m/S 758 mmHg 80%
    02:00 +4°C° 0 mm 2 m/S 759 mmHg 81%
    03:00 +3°C° 0 mm 2 m/S 759 mmHg 83%
    04:00 +3°C° 0 mm 2 m/S 759 mmHg 84%
    05:00 +3°C° 0 mm 2 m/S 759 mmHg 84%
    06:00 +2°C° 0 mm 2 m/S 759 mmHg 84%
    07:00 +2°C° 0 mm 2 m/S 759 mmHg 85%
    08:00 +3°C° 0 mm 2 m/S 760 mmHg 77%
    09:00 +4°C° 0 mm 2 m/S 760 mmHg 70%
    10:00 +5°C° 0 mm 3 m/S 760 mmHg 63%
    11:00 +6°C° 0 mm 2 m/S 760 mmHg 57%
    12:00 +7°C° 0 mm 2 m/S 760 mmHg 52%
    13:00 +8°C° 0 mm 2 m/S 760 mmHg 47%
    14:00 +8°C° 0 mm 2 m/S 760 mmHg 45%
    15:00 +9°C° 0 mm 1 m/S 760 mmHg 44%
    16:00 +9°C° 0 mm 1 m/S 759 mmHg 43%
    17:00 +8°C° 0 mm 1 m/S 759 mmHg 46%
    18:00 +7°C° 0 mm 1 m/S 760 mmHg 49%
    19:00 +6°C° 0 mm 1 m/S 760 mmHg 53%
    20:00 +5°C° 0 mm 1 m/S 760 mmHg 54%
    21:00 +5°C° 0 mm 1 m/S 760 mmHg 55%
    22:00 +5°C° 0 mm 1 m/S 760 mmHg 56%
    23:00 +4°C° 0 mm 1 m/S 760 mmHg 57%

    übermorgen, 23 Oktober, Dienstag

    Zeit Temperatur Niederschläge Wind Luftdruck Luftfeuchtigkeit
    00:00 +4°C° 0 mm 1 m/S 759 mmHg 58%
    01:00 +4°C° 0 mm 1 m/S 759 mmHg 59%
    02:00 +4°C° 0 mm 1 m/S 759 mmHg 60%
    03:00 +2°C° 0 mm 2 m/S 759 mmHg 61%
    04:00 +2°C° 0 mm 2 m/S 759 mmHg 62%
    05:00 +2°C° 0 mm 2 m/S 759 mmHg 63%
    06:00 +2°C° 0 mm 2 m/S 758 mmHg 64%
    07:00 +1°C° 0 mm 2 m/S 758 mmHg 65%
    08:00 +3°C° 0 mm 2 m/S 758 mmHg 61%
    09:00 +5°C° 0 mm 2 m/S 758 mmHg 56%
    10:00 +5°C° 0 mm 3 m/S 758 mmHg 51%
    11:00 +8°C° 0 mm 3 m/S 757 mmHg 48%
    12:00 +8°C° 0 mm 4 m/S 757 mmHg 46%
    13:00 +11°C° 0 mm 4 m/S 756 mmHg 43%
    14:00 +11°C° 0 mm 4 m/S 756 mmHg 44%
    15:00 +11°C° 0 mm 4 m/S 755 mmHg 44%
    16:00 +11°C° 0 mm 4 m/S 754 mmHg 45%
    17:00 +10°C° 0 mm 4 m/S 754 mmHg 51%
    18:00 +9°C° 0 mm 3 m/S 754 mmHg 56%
    19:00 +8°C° 0 mm 3 m/S 753 mmHg 62%
    20:00 +8°C° 0 mm 3 m/S 753 mmHg 63%
    21:00 +8°C° 0 mm 4 m/S 752 mmHg 64%
    22:00 +8°C° 0 mm 4 m/S 752 mmHg 65%
    23:00 +8°C° 0 mm 4 m/S 752 mmHg 64%

    24 Oktober, Mittwoch

    Zeit Temperatur Niederschläge Wind Luftdruck Luftfeuchtigkeit
    00:00 +9°C° 0 mm 5 m/S 751 mmHg 63%
    01:00 +9°C° 0 mm 5 m/S 751 mmHg 61%
    02:00 +9°C° 0 mm 5 m/S 751 mmHg 65%
    03:00 +9°C° 0 mm 5 m/S 750 mmHg 68%
    04:00 +9°C° 0 mm 5 m/S 750 mmHg 72%
    05:00 +9°C° 0 mm 6 m/S 750 mmHg 72%
    06:00 +9°C° 0 mm 6 m/S 749 mmHg 73%
    07:00 +9°C° 0 mm 6 m/S 749 mmHg 73%
    08:00 +9°C° 0 mm 7 m/S 749 mmHg 70%
    09:00 +10°C° 0 mm 7 m/S 749 mmHg 66%
    10:00 +10°C° 0 mm 8 m/S 749 mmHg 63%
    11:00 +11°C° 0 mm 8 m/S 748 mmHg 59%
    12:00 +12°C° 0 mm 8 m/S 748 mmHg 55%
    13:00 +14°C° 0 mm 7 m/S 748 mmHg 51%
    14:00 +14°C° 0 mm 7 m/S 748 mmHg 50%
    15:00 +14°C° 0 mm 6 m/S 748 mmHg 50%
    16:00 +14°C° 0 mm 6 m/S 747 mmHg 49%
    17:00 +13°C° 0 mm 5 m/S 747 mmHg 52%
    18:00 +12°C° 0 mm 5 m/S 748 mmHg 54%
    19:00 +11°C° 0 mm 4 m/S 748 mmHg 57%
    20:00 +11°C° 0 mm 4 m/S 748 mmHg 56%
    21:00 +11°C° 0 mm 4 m/S 748 mmHg 56%
    22:00 +11°C° 0 mm 4 m/S 748 mmHg 56%
    23:00 +11°C° 0.1 mm 4 m/S 748 mmHg 57%

    25 Oktober, Donnerstag

    Zeit Temperatur Niederschläge Wind Luftdruck Luftfeuchtigkeit
    00:00 +11°C° 0.1 mm 4 m/S 748 mmHg 58%
    01:00 +11°C° 0.1 mm 4 m/S 748 mmHg 59%
    02:00 +11°C° 0 mm 4 m/S 748 mmHg 61%
    03:00 +10°C° 0 mm 5 m/S 747 mmHg 62%
    04:00 +10°C° 0 mm 5 m/S 747 mmHg 63%
    05:00 +9°C° 0 mm 5 m/S 747 mmHg 66%
    06:00 +9°C° 0 mm 5 m/S 747 mmHg 69%
    07:00 +8°C° 0 mm 6 m/S 747 mmHg 72%
    08:00 +9°C° 0 mm 6 m/S 747 mmHg 65%
    09:00 +10°C° 0 mm 7 m/S 747 mmHg 59%
    10:00 +11°C° 0 mm 8 m/S 747 mmHg 53%
    11:00 +13°C° 0 mm 8 m/S 746 mmHg 47%
    12:00 +15°C° 0 mm 8 m/S 746 mmHg 41%
    13:00 +17°C° 0 mm 9 m/S 746 mmHg 35%
    14:00 +17°C° 0 mm 8 m/S 745 mmHg 34%
    15:00 +17°C° 0 mm 8 m/S 745 mmHg 34%
    16:00 +16°C° 0 mm 7 m/S 745 mmHg 33%
    17:00 +16°C° 0 mm 8 m/S 745 mmHg 34%
    18:00 +15°C° 0 mm 8 m/S 745 mmHg 35%
    19:00 +13°C° 0 mm 8 m/S 744 mmHg 35%
    20:00 +12°C° 0 mm 8 m/S 744 mmHg 36%
    21:00 +12°C° 0 mm 8 m/S 744 mmHg 37%
    22:00 +12°C° 0 mm 8 m/S 744 mmHg 38%
    23:00 +12°C° 0 mm 8 m/S 743 mmHg 38%

    26 Oktober, Freitag

    Zeit Temperatur Niederschläge Wind Luftdruck Luftfeuchtigkeit
    00:00 +12°C° 0 mm 8 m/S 743 mmHg 38%
    01:00 +12°C° 0 mm 8 m/S 743 mmHg 38%
    02:00 +12°C° 0.1 mm 8 m/S 742 mmHg 39%
    03:00 +12°C° 0.1 mm 8 m/S 742 mmHg 40%
    04:00 +12°C° 0.1 mm 7 m/S 742 mmHg 41%
    05:00 +11°C° 0 mm 7 m/S 741 mmHg 41%
    06:00 +11°C° 0 mm 7 m/S 741 mmHg 42%
    07:00 +11°C° 0 mm 7 m/S 740 mmHg 43%
    08:00 +12°C° 0 mm 7 m/S 740 mmHg 42%
    09:00 +13°C° 0 mm 8 m/S 740 mmHg 41%
    10:00 +16°C° 0 mm 8 m/S 739 mmHg 41%
    11:00 +17°C° 0 mm 8 m/S 739 mmHg 39%
    12:00 +18°C° 0 mm 8 m/S 739 mmHg 38%
    13:00 +20°C° 0 mm 8 m/S 739 mmHg 37%
    14:00 +20°C° 0 mm 7 m/S 739 mmHg 40%
    15:00 +20°C° 0 mm 6 m/S 739 mmHg 43%
    16:00 +20°C° 0 mm 4 m/S 739 mmHg 46%
    17:00 +18°C° 0.1 mm 4 m/S 739 mmHg 52%
    18:00 +17°C° 0.1 mm 4 m/S 740 mmHg 58%
    19:00 +15°C° 0.1 mm 4 m/S 740 mmHg 64%
    20:00 +13°C° 0 mm 5 m/S 741 mmHg 68%
    21:00 +12°C° 0 mm 5 m/S 741 mmHg 72%
    22:00 +10°C° 0 mm 5 m/S 742 mmHg 76%
    23:00 +9°C° 0 mm 5 m/S 742 mmHg 74%
    Mehr zeigen